LA4GY-1 Weather Reports


Display with metric or nautical units.
time (UTC)temp
F
wind
direction
speed
MPH
gust
MPH
rain 1hr
in
rain 24hr
in
rain mn
in
humidity
%
barometer
mb
20260509115006 51 274 0.0 0.0 0.00 0.00 0.00 73 1017.6
20260509114005 51 275 0.0 0.0 0.00 0.00 0.00 73 1017.6
20260509112005 51 303 0.0 0.0 0.00 0.00 0.00 70 1017.6
20260509111006 51 255 0.0 0.0 0.00 0.00 0.00 73 1017.6
20260509110005 51 257 0.0 0.0 0.00 0.00 0.00 70 1017.6
20260509105005 51 273 0.0 0.0 0.00 0.00 0.00 68 1017.6
20260509104005 51 222 0.0 0.0 0.00 0.00 0.00 69 1017.5
20260509103006 50 221 0.0 0.0 0.00 0.00 0.00 69 1017.4
20260509102006 50 223 0.0 0.0 0.00 0.00 0.00 70 1017.4
20260509101005 50 188 0.0 0.0 0.00 0.00 0.00 69 1017.4
20260509100006 50 193 0.0 0.0 0.00 0.00 0.00 67 1017.3
20260509095006 49 149 0.0 0.0 0.00 0.00 0.00 67 1017.2
20260509094006 49 330 0.0 0.0 0.00 0.00 0.00 64 1017.3
20260509093005 49 343 0.0 0.0 0.00 0.00 0.00 64 1017.3
20260509092006 49 343 0.0 0.0 0.00 0.00 0.00 66 1017.4
20260509091005 49 343 0.0 0.0 0.00 0.00 0.00 68 1017.4
20260509090006 49 343 0.0 0.0 0.00 0.00 0.00 68 1017.4
20260509085005 49 343 0.0 0.0 0.00 0.00 0.00 65 1017.3
20260509084005 49 343 0.0 0.0 0.00 0.00 0.00 65 1017.3
20260509083006 48 344 0.0 0.0 0.00 0.00 0.00 66 1017.3
20260509082005 47 343 0.0 0.0 0.00 0.00 0.00 66 1017.3
20260509081006 47 343 0.0 0.0 0.00 0.00 0.00 66 1017.3
20260509080005 47 343 0.0 0.0 0.00 0.00 0.00 68 1017.3
20260509074005 47 343 0.0 0.0 0.00 0.00 0.00 70 1017.4
20260509073005 46 343 0.0 0.0 0.00 0.00 0.00 72 1017.5
20260509072006 46 343 0.0 0.0 0.00 0.00 0.00 73 1017.6
20260509071006 46 343 0.0 0.0 0.00 0.00 0.00 73 1017.6
20260509070005 46 343 0.0 0.0 0.00 0.00 0.00 74 1017.6
20260509065005 46 342 0.0 0.0 0.00 0.00 0.00 73 1017.6
20260509064005 46 343 0.0 0.0 0.00 0.00 0.00 70 1017.6
20260509063005 45 343 0.0 0.0 0.00 0.00 0.00 72 1017.7
20260509062005 45 343 0.0 0.0 0.00 0.00 0.00 72 1017.7
20260509061005 45 342 0.0 0.0 0.00 0.00 0.00 72 1017.7
20260509060005 44 342 0.0 0.0 0.00 0.00 0.00 73 1017.7
20260509055005 44 342 0.0 0.0 0.00 0.00 0.00 76 1017.8
20260509054005 44 342 0.0 0.0 0.00 0.00 0.00 75 1017.9
20260509052006 44 342 0.0 0.0 0.00 0.00 0.00 76 1018.0
20260509051005 44 342 0.0 0.0 0.00 0.00 0.00 74 1018.0
20260509050005 43 342 0.0 0.0 0.00 0.00 0.00 75 1018.1
20260509044005 42 342 0.0 0.0 0.00 0.00 0.00 76 1018.2
20260509042005 41 342 0.0 0.0 0.00 0.00 0.00 78 1018.2
20260509035006 40 342 0.0 0.0 0.00 0.00 0.00 77 1018.1
20260509033005 41 342 0.0 0.0 0.00 0.00 0.00 75 1018.2
20260509032005 41 343 0.0 0.0 0.00 0.00 0.00 75 1018.3
20260509031005 41 343 0.0 0.0 0.00 0.00 0.00 74 1018.3
20260509030005 41 343 0.0 0.0 0.00 0.00 0.00 75 1018.4
20260509025005 40 344 0.0 0.0 0.00 0.00 0.00 74 1018.4
20260509024005 40 353 0.0 0.0 0.00 0.00 0.00 75 1018.4
20260509023005 40 335 0.0 0.0 0.00 0.00 0.00 75 1018.4
20260509022004 40 335 0.0 0.0 0.00 0.00 0.00 75 1018.2
20260509021006 40 335 0.0 0.0 0.00 0.00 0.00 74 1018.2
20260509015005 40 335 0.0 0.0 0.00 0.00 0.00 74 1018.3
20260509014005 40 346 0.0 0.0 0.00 0.00 0.00 74 1018.3
20260509013005 40 346 0.0 0.0 0.00 0.00 0.00 74 1018.4
20260509012006 41 346 0.0 0.0 0.00 0.00 0.00 74 1018.4
20260509011005 41 346 0.0 0.0 0.00 0.00 0.00 73 1018.5
20260509010005 41 346 0.0 0.0 0.00 0.00 0.00 73 1018.6
20260509005004 42 331 0.0 0.0 0.00 0.00 0.00 72 1018.6
20260509004004 42 337 0.0 0.0 0.00 0.00 0.00 71 1018.7
20260509002005 43 337 0.0 0.0 0.00 0.00 0.00 71 1018.7
20260509001005 43 342 0.0 0.0 0.00 0.00 0.00 68 1018.6
20260509000005 43 324 0.0 0.0 0.00 0.00 0.00 68 1018.5
20260508235004 44 325 0.0 0.0 0.00 0.00 0.00 67 1018.5
20260508233005 44 323 0.0 0.0 0.00 0.00 0.00 67 1018.6
20260508232005 43 337 0.0 0.0 0.00 0.00 0.00 68 1018.7
20260508231004 43 348 0.0 0.0 0.00 0.00 0.00 69 1018.8
20260508230005 43 334 0.0 0.0 0.00 0.00 0.00 69 1018.8
20260508225005 43 323 0.0 0.0 0.00 0.00 0.00 68 1018.9
20260508224005 44 346 0.0 0.0 0.00 0.00 0.00 68 1019.0
20260508223005 44 355 0.0 0.0 0.00 0.00 0.00 68 1019.2
20260508222005 44 331 0.0 0.0 0.00 0.00 0.00 67 1019.2
20260508221005 44 358 0.0 0.0 0.00 0.00 0.00 68 1019.3
20260508220005 44 340 0.0 0.0 0.00 0.00 0.00 67 1019.3
20260508215005 44 344 0.0 0.0 0.00 0.00 0.00 66 1019.4
20260508213005 45 340 0.0 0.0 0.00 0.00 0.00 64 1019.4
20260508212004 45 311 0.0 0.0 0.00 0.00 0.00 64 1019.6
20260508210004 45 346 0.0 0.0 0.00 0.00 0.00 61 1019.5
20260508205005 46 330 0.0 0.0 0.00 0.00 0.00 61 1019.6
20260508204005 46 336 0.0 0.0 0.00 0.00 0.00 62 1019.6
20260508203004 46 15 0.0 0.0 0.00 0.00 0.00 61 1019.7
20260508202005 46 0 0.0 0.0 0.00 0.00 0.00 60 1019.7
20260508201005 47 18 0.0 0.0 0.00 0.00 0.00 60 1019.9
20260508200004 47 26 0.0 0.0 0.00 0.00 0.00 60 1019.8
20260508195005 47 355 0.0 0.0 0.00 0.00 0.00 59 1019.8
20260508194005 48 49 0.0 0.0 0.00 0.01 0.00 59 1019.9
20260508193005 48 290 0.0 0.0 0.00 0.01 0.00 58 1019.9
20260508192005 49 318 0.0 0.0 0.00 0.01 0.00 57 1019.9
20260508191006 49 324 0.0 0.0 0.00 0.01 0.00 57 1020.0
20260508190005 50 342 0.0 0.0 0.00 0.01 0.00 54 1020.0
20260508185005 50 43 0.0 0.0 0.00 0.02 0.00 53 1020.1
20260508182005 51 117 0.0 0.0 0.00 0.02 0.00 53 1020.1
20260508181006 52 117 0.0 0.0 0.00 0.02 0.00 55 1020.2
20260508175006 53 117 0.0 0.0 0.00 0.02 0.00 51 1020.4
20260508174006 53 117 0.0 0.0 0.00 0.02 0.00 52 1020.4
20260508173006 53 117 0.0 0.0 0.00 0.02 0.00 48 1020.5
20260508172006 54 117 0.0 0.0 0.00 0.02 0.00 46 1020.6
20260508171006 54 117 0.0 0.0 0.00 0.02 0.00 45 1020.7
20260508170005 54 117 0.0 0.0 0.00 0.02 0.00 45 1020.8
20260508164006 53 117 0.0 0.0 0.00 0.03 0.00 43 1020.9
20260508163006 53 117 0.0 0.0 0.00 0.04 0.00 43 1020.9
20260508162006 53 117 0.0 0.0 0.00 0.04 0.00 44 1020.9
20260508161006 54 105 0.0 0.0 0.00 0.04 0.00 44 1020.9
20260508160005 53 111 0.0 0.0 0.00 0.04 0.00 45 1020.9
20260508155005 53 86 0.0 0.0 0.00 0.04 0.00 44 1020.9
20260508153005 53 101 0.0 0.0 0.00 0.04 0.00 44 1021.0
20260508152006 53 107 0.0 0.0 0.00 0.04 0.00 43 1021.0
20260508151006 52 105 0.0 0.0 0.00 0.06 0.00 45 1021.0
20260508145006 52 91 0.0 0.0 0.00 0.06 0.00 45 1021.1
20260508144006 52 140 0.0 0.0 0.00 0.06 0.00 45 1021.1
20260508143005 52 88 0.0 0.0 0.00 0.06 0.00 45 1021.3
20260508142006 52 113 0.0 0.0 0.00 0.06 0.00 44 1021.3
20260508141006 52 83 0.0 0.0 0.00 0.06 0.00 46 1021.4
20260508140006 52 72 0.0 0.0 0.00 0.06 0.00 45 1021.5
20260508135006 52 89 0.0 0.0 0.00 0.06 0.00 45 1021.6
20260508134005 52 94 0.0 0.0 0.00 0.06 0.00 46 1021.7
20260508133005 53 113 0.0 0.0 0.00 0.06 0.00 45 1021.7
20260508132006 53 76 0.0 0.0 0.00 0.06 0.00 46 1021.8
20260508131005 53 87 0.0 0.0 0.00 0.06 0.00 45 1022.0
20260508130006 53 102 0.0 0.0 0.00 0.06 0.00 46 1022.1
20260508125006 52 117 0.0 0.0 0.00 0.06 0.00 46 1022.2
20260508123006 52 121 0.0 0.0 0.00 0.06 0.00 47 1022.3
20260508120005 52 108 0.0 0.0 0.00 0.06 0.00 49 1022.6